COSMOS 2251 DEB

Satellite information

Favourite Embed

Satellite Type and Status

DEBRISIN ORBIT

Key statistics

Satellite COSMOS 2251 DEB at a glance.

Uptime

11829

Days in orbit

Revolutions

≈ 14.5

Per day

Orbit

LEO

Low Earth Orbit

Inclination

74.0

Latest

Satellite identification and parameters

Extended collection of information and parameters for COSMOS 2251 DEB.

Object identification

Identified? True

Debris? True

Object name: COSMOS 2251 DEB

International designator: 1993-036BWT

Object number (NORAD): 46271

Object ID (CCSDS): 46271

Country: COMMONWEALTH OF INDEPENDENT STATES (CIS)

Current information (Y/N): Y

RCS size: SMALL

Orbital parameters

Period: 99.225 minutes

Inclination: 74.0454 deg

SMA: 7099.716 km

Apoapsis: 750.793 km

Periapsis: 692.369 km

RAAN: 162.5633 deg

Eccentricy: 0.00411454

Argument of periapsis: 292.6498 deg

Mean anomaly: 67.0314 deg

Mean motion: 14.51246847 rev/day

Mean motion (dot): 0.00001276 rev/day2

B* drag term: 0.00032459657 1/REarth

Two-line elements (TLE)

Creation date: Oct. 29, 2025, 7:31 p.m.

Reference frame: TEME

Reference center: EARTH

Epoch: Oct. 28, 2025, 9:21 p.m. UTC

TLE line 0: 0 COSMOS 2251 DEB

TLE line 1: 1 46271U 93036BWT 25301.88966653 .00001276 00000-0 32460-3 0 9997

TLE line 2: 2 46271 74.0454 162.5633 0041145 292.6498 67.0314 14.51246847839910

Live tracking on map

Real-time ground track for satellite COSMOS 2251 DEB.

In-orbit conjunctions

A list of the most updated potential collisions computed for object COSMOS 2251 DEB.

Target Orbit TCA Probability of collision Miss distance Type
CZ-6A DEB LEO 2024-10-13 15:41:07 0.000233882 230.0 (m) DEBRIS
SL-18 R/B LEO 2024-10-11 17:35:01 0.000149009 246.0 (m) ROCKET BODY

Associated space launch

Military communications satellite. Destroyed in a collision with Iridium 33.

COSMOS 2251 DEB was lifted into orbit during the mission ‘Kosmos-3M | Strela-2M 51’, on board a Kosmos-3M space rocket.

The launch took place on June 16, 1993, 4:17 a.m. from 132/1 (132L).

For more information about the launch, click the button.

Launch to space Kosmos-3M | Strela-2M 51
Kosmos-3M | Strela-2M 51

Agency: N/A

Status: Launch Successful

Launch date: June 16, 1993, 4:17 a.m. UTC

Rocket: Kosmos-3M

Launch pad: 132/1 (132L)

Location: Plesetsk Cosmodrome, Russian Federation

...

Latest news about this satellite

There are no fresh news available about this satellite. Check back as we update our databases every day.


Newsletter sign-up

Weekly statistics, charts and insights to help you stay on top of the space industry.